User: anonymous   Login
Location: Beekmeers
(50.8953°N, 3.6968°E)
Time: 19:56:01
(UTC+00:00)
Language:

Cosmos 468 Rocket - Orbit

View from above orbital plane
View from above orbital plane
View from above satellite
View from above satellite

Ground track
Ground track

The orbit data is extracted from the following two-line orbital elements,

1 05707U 71114B   24207.24169401  .00000782  00000-0  25717-3 0  9997
2 05707  74.0292 336.5582 0023681 132.2464 228.0705 14.39725043755851
Epoch (UTC): 25 July 2024 05:48:02
Eccentricity: 0.0023681
inclination: 74.0292°
perigee height: 742 km
apogee height: 776 km
right ascension of ascending node: 336.5582°
argument of perigee: 132.2464°
revolutions per day: 14.39725043
mean anomaly at epoch: 228.0705°
orbit number at epoch: 75585

The dashed part of the orbit path shows where the satellite is in the earth's shadow,  

DLR